Location: Friendly Valley
(37.6901°N, 89.9107°W)
Time: 10:43:35
(UTC+00:00)

ACS3 Solar Sail - Visible Passes

Search period start: 11 October 2024 00:00
Search period end: 21 October 2024 00:00
Orbit: 960 x 1036 km, 97.4° (Epoch: 10 October)

Date Brightness Start Highest point End Pass type
(mag) Time Alt. Az. Time Alt. Az. Time Alt. Az.
11 Oct 3.2 00:27:58 16° E 00:29:30 17° ENE 00:33:23 10° NNE visible
11 Oct 2.0 02:13:06 72° WNW 02:13:06 72° WNW 02:19:02 10° NNW visible
12 Oct 2.6 00:59:59 30° ENE 01:00:38 31° ENE 01:06:01 10° N visible
12 Oct 3.0 02:45:08 39° WNW 02:45:08 39° WNW 02:50:15 10° NNW visible
13 Oct 1.9 01:32:00 55° ENE 01:32:00 55° ENE 01:38:03 10° N visible
13 Oct 3.9 03:17:09 21° WNW 03:17:09 21° WNW 03:20:51 10° NW visible
14 Oct 3.3 00:18:52 14° ENE 00:20:16 15° ENE 00:23:37 10° NNE visible
14 Oct 1.9 02:04:01 73° NNW 02:04:01 73° NNW 02:09:42 10° NNW visible
14 Oct 4.6 03:49:09 10° WNW 03:49:09 10° WNW 03:49:26 10° WNW visible
15 Oct 2.7 00:50:51 27° ENE 00:51:20 27° ENE 00:56:28 10° NNE visible
15 Oct 2.9 02:36:00 42° WNW 02:36:00 42° WNW 02:40:58 10° NNW visible
16 Oct 2.1 01:22:50 48° ENE 01:22:50 48° ENE 01:28:33 10° N visible
16 Oct 3.8 03:07:59 23° WNW 03:07:59 23° WNW 03:11:42 10° NW visible
17 Oct 3.4 00:09:41 12° ENE 00:10:57 13° ENE 00:13:37 10° NE visible
17 Oct 1.9 01:54:49 68° N 01:54:49 68° N 02:00:15 10° N visible
17 Oct 4.5 03:39:58 12° WNW 03:39:58 12° WNW 03:41:07 10° WNW visible
18 Oct 2.9 00:41:39 24° ENE 00:41:58 24° ENE 00:46:47 10° NNE visible
18 Oct 2.7 02:26:47 45° WNW 02:26:47 45° WNW 02:31:34 10° NNW visible
19 Oct 2.2 01:13:36 41° ENE 01:13:36 41° ENE 01:18:58 10° N visible
19 Oct 3.7 02:58:45 25° WNW 02:58:45 25° WNW 03:02:25 10° NW visible
20 Oct 3.5 00:00:25 11° ENE 00:01:35 11° ENE 00:03:14 10° NE visible
20 Oct 2.0 01:45:34 61° NNE 01:45:34 61° NNE 01:50:42 10° N visible
20 Oct 4.4 03:30:41 13° WNW 03:30:41 13° WNW 03:32:16 10° NW visible
